When you browse on this site, cookies collect data to enhance your experience and personalize the content and advertising you see.
Visit our Privacy Policy to learn more. By continuing to use the site, you agree to this use of cookies and data.
  • en France
  • Liste des pays
  • À 7 jours
  • Température de l'eau
  • Carte satellitaire
  • Carte météo
  • Widgets météo
  • user-avatar
    Se connecter

    Météo par heure à Mansoa

    Ce jour, 23 Mai, Jeudi

    Heure Température Précipitation Vent Pression Humidité
    00:00 +30°C° 0 mm 2 m/s 756 mmHg 41%
    01:00 +30°C° 0 mm 2 m/s 755 mmHg 42%
    02:00 +29°C° 0 mm 2 m/s 755 mmHg 42%
    03:00 +29°C° 0 mm 1 m/s 755 mmHg 42%
    04:00 +28°C° 0 mm 1 m/s 755 mmHg 43%
    05:00 +28°C° 0 mm 1 m/s 755 mmHg 43%
    06:00 +30°C° 0 mm 1 m/s 756 mmHg 39%
    07:00 +31°C° 0 mm 1 m/s 756 mmHg 34%
    08:00 +33°C° 0 mm 1 m/s 756 mmHg 29%
    09:00 +36°C° 0 mm 1 m/s 756 mmHg 24%
    10:00 +39°C° 0 mm 2 m/s 756 mmHg 20%
    11:00 +42°C° 0 mm 2 m/s 756 mmHg 16%
    12:00 +43°C° 0 mm 2 m/s 755 mmHg 15%
    13:00 +45°C° 0 mm 2 m/s 755 mmHg 13%
    14:00 +47°C° 0 mm 2 m/s 754 mmHg 12%
    15:00 +45°C° 0 mm 2 m/s 754 mmHg 14%
    16:00 +44°C° 0 mm 3 m/s 753 mmHg 16%
    17:00 +43°C° 0 mm 3 m/s 753 mmHg 18%
    18:00 +39°C° 0 mm 3 m/s 753 mmHg 28%
    19:00 +36°C° 0 mm 4 m/s 754 mmHg 37%
    20:00 +33°C° 0 mm 4 m/s 754 mmHg 46%
    21:00 +33°C° 0 mm 4 m/s 755 mmHg 47%
    22:00 +31°C° 0 mm 3 m/s 755 mmHg 47%
    23:00 +31°C° 0 mm 3 m/s 756 mmHg 48%

    Demain, 24 Mai, Vendredi

    Heure Température Précipitation Vent Pression Humidité
    00:00 +30°C° 0 mm 3 m/s 756 mmHg 49%
    01:00 +30°C° 0 mm 2 m/s 756 mmHg 51%
    02:00 +29°C° 0 mm 2 m/s 756 mmHg 52%
    03:00 +28°C° 0 mm 2 m/s 756 mmHg 54%
    04:00 +28°C° 0 mm 2 m/s 756 mmHg 56%
    05:00 +27°C° 0 mm 2 m/s 756 mmHg 59%
    06:00 +29°C° 0 mm 1 m/s 756 mmHg 53%
    07:00 +31°C° 0 mm 1 m/s 757 mmHg 47%
    08:00 +32°C° 0 mm 1 m/s 757 mmHg 41%
    09:00 +35°C° 0 mm 1 m/s 757 mmHg 34%
    10:00 +39°C° 0 mm 1 m/s 757 mmHg 27%
    11:00 +42°C° 0 mm 1 m/s 757 mmHg 21%
    12:00 +43°C° 0 mm 1 m/s 756 mmHg 19%
    13:00 +44°C° 0 mm 1 m/s 755 mmHg 17%
    14:00 +46°C° 0 mm 1 m/s 754 mmHg 15%
    15:00 +44°C° 0 mm 3 m/s 754 mmHg 21%
    16:00 +42°C° 0 mm 4 m/s 753 mmHg 26%
    17:00 +39°C° 0 mm 5 m/s 753 mmHg 32%
    18:00 +36°C° 0 mm 5 m/s 754 mmHg 40%
    19:00 +34°C° 0 mm 5 m/s 754 mmHg 48%
    20:00 +30°C° 0 mm 4 m/s 755 mmHg 57%
    21:00 +30°C° 0 mm 4 m/s 756 mmHg 57%
    22:00 +29°C° 0 mm 3 m/s 756 mmHg 58%
    23:00 +29°C° 0 mm 3 m/s 757 mmHg 59%

    Après-demain, 25 Mai, Samedi

    Heure Température Précipitation Vent Pression Humidité
    00:00 +29°C° 0 mm 3 m/s 757 mmHg 61%
    01:00 +28°C° 0 mm 2 m/s 757 mmHg 64%
    02:00 +28°C° 0 mm 2 m/s 757 mmHg 66%
    03:00 +27°C° 0 mm 2 m/s 757 mmHg 68%
    04:00 +27°C° 0 mm 1 m/s 757 mmHg 69%
    05:00 +27°C° 0 mm 1 m/s 757 mmHg 71%
    06:00 +28°C° 0 mm 1 m/s 757 mmHg 65%
    07:00 +29°C° 0 mm 1 m/s 757 mmHg 58%
    08:00 +30°C° 0 mm 1 m/s 758 mmHg 52%
    09:00 +33°C° 0 mm 1 m/s 758 mmHg 44%
    10:00 +36°C° 0 mm 2 m/s 757 mmHg 36%
    11:00 +39°C° 0 mm 2 m/s 757 mmHg 27%
    12:00 +40°C° 0 mm 2 m/s 756 mmHg 26%
    13:00 +42°C° 0 mm 3 m/s 755 mmHg 24%
    14:00 +43°C° 0 mm 3 m/s 755 mmHg 22%
    15:00 +41°C° 0 mm 4 m/s 754 mmHg 26%
    16:00 +39°C° 0 mm 5 m/s 754 mmHg 31%
    17:00 +37°C° 0 mm 5 m/s 754 mmHg 35%
    18:00 +35°C° 0 mm 5 m/s 755 mmHg 43%
    19:00 +33°C° 0 mm 5 m/s 755 mmHg 51%
    20:00 +30°C° 0 mm 4 m/s 756 mmHg 58%
    21:00 +29°C° 0 mm 4 m/s 757 mmHg 60%
    22:00 +29°C° 0 mm 3 m/s 757 mmHg 62%
    23:00 +28°C° 0 mm 3 m/s 758 mmHg 63%

    26 Mai, Dimanche

    Heure Température Précipitation Vent Pression Humidité
    00:00 +28°C° 0 mm 2 m/s 757 mmHg 65%
    01:00 +28°C° 0 mm 2 m/s 757 mmHg 67%
    02:00 +27°C° 0 mm 2 m/s 757 mmHg 68%
    03:00 +27°C° 0 mm 1 m/s 757 mmHg 69%
    04:00 +27°C° 0 mm 1 m/s 757 mmHg 70%
    05:00 +25°C° 0 mm 0 m/s 757 mmHg 71%
    06:00 +26°C° 0 mm 0 m/s 757 mmHg 64%
    07:00 +28°C° 0 mm 0 m/s 758 mmHg 57%
    08:00 +29°C° 0 mm 0 m/s 758 mmHg 51%
    09:00 +34°C° 0 mm 1 m/s 758 mmHg 44%
    10:00 +36°C° 0 mm 1 m/s 758 mmHg 37%
    11:00 +40°C° 0 mm 1 m/s 758 mmHg 31%
    12:00 +40°C° 0 mm 1 m/s 757 mmHg 30%
    13:00 +41°C° 0 mm 2 m/s 756 mmHg 29%
    14:00 +41°C° 0 mm 2 m/s 755 mmHg 28%
    15:00 +40°C° 0 mm 3 m/s 755 mmHg 32%
    16:00 +38°C° 0 mm 4 m/s 755 mmHg 36%
    17:00 +37°C° 0 mm 5 m/s 755 mmHg 40%
    18:00 +35°C° 0 mm 5 m/s 755 mmHg 46%
    19:00 +33°C° 0 mm 4 m/s 756 mmHg 52%
    20:00 +30°C° 0 mm 4 m/s 757 mmHg 57%
    21:00 +30°C° 0 mm 3 m/s 757 mmHg 58%
    22:00 +30°C° 0 mm 3 m/s 757 mmHg 58%
    23:00 +29°C° 0 mm 2 m/s 758 mmHg 59%

    27 Mai, Lundi

    Heure Température Précipitation Vent Pression Humidité
    00:00 +29°C° 0 mm 2 m/s 757 mmHg 59%
    01:00 +29°C° 0 mm 2 m/s 757 mmHg 58%
    02:00 +29°C° 0 mm 2 m/s 757 mmHg 58%
    03:00 +28°C° 0 mm 1 m/s 757 mmHg 58%
    04:00 +28°C° 0 mm 1 m/s 757 mmHg 59%
    05:00 +28°C° 0 mm 1 m/s 757 mmHg 59%
    06:00 +29°C° 0 mm 1 m/s 757 mmHg 53%
    07:00 +31°C° 0 mm 1 m/s 757 mmHg 47%
    08:00 +32°C° 0 mm 1 m/s 758 mmHg 42%
    09:00 +35°C° 0 mm 1 m/s 758 mmHg 37%
    10:00 +37°C° 0 mm 1 m/s 757 mmHg 33%
    11:00 +40°C° 0 mm 1 m/s 757 mmHg 29%
    12:00 +41°C° 0 mm 2 m/s 756 mmHg 28%
    13:00 +42°C° 0 mm 2 m/s 755 mmHg 27%
    14:00 +43°C° 0 mm 3 m/s 755 mmHg 26%
    15:00 +42°C° 0 mm 3 m/s 754 mmHg 29%
    16:00 +40°C° 0 mm 4 m/s 754 mmHg 33%
    17:00 +39°C° 0 mm 5 m/s 754 mmHg 36%
    18:00 +37°C° 0 mm 5 m/s 755 mmHg 39%
    19:00 +35°C° 0 mm 5 m/s 756 mmHg 42%
    20:00 +34°C° 0 mm 4 m/s 756 mmHg 45%
    21:00 +33°C° 0 mm 4 m/s 756 mmHg 44%
    22:00 +33°C° 0 mm 3 m/s 757 mmHg 43%
    23:00 +31°C° 0 mm 2 m/s 757 mmHg 42%

    28 Mai, Mardi

    Heure Température Précipitation Vent Pression Humidité
    00:00 +30°C° 0 mm 2 m/s 757 mmHg 44%
    01:00 +30°C° 0 mm 2 m/s 756 mmHg 45%
    02:00 +29°C° 0 mm 1 m/s 756 mmHg 46%
    03:00 +29°C° 0 mm 1 m/s 756 mmHg 48%
    04:00 +28°C° 0 mm 1 m/s 757 mmHg 49%
    05:00 +28°C° 0 mm 1 m/s 757 mmHg 50%
    06:00 +29°C° 0 mm 1 m/s 757 mmHg 45%
    07:00 +31°C° 0 mm 1 m/s 757 mmHg 39%
    08:00 +32°C° 0 mm 1 m/s 758 mmHg 34%
    09:00 +35°C° 0 mm 1 m/s 757 mmHg 28%
    10:00 +39°C° 0 mm 1 m/s 757 mmHg 23%
    11:00 +42°C° 0 mm 2 m/s 757 mmHg 17%
    12:00 +42°C° 0 mm 2 m/s 756 mmHg 17%
    13:00 +43°C° 0 mm 2 m/s 755 mmHg 16%
    14:00 +45°C° 0 mm 2 m/s 754 mmHg 16%
    15:00 +44°C° 0 mm 3 m/s 754 mmHg 19%
    16:00 +42°C° 0 mm 4 m/s 754 mmHg 23%
    17:00 +40°C° 0 mm 5 m/s 754 mmHg 26%
    18:00 +39°C° 0 mm 5 m/s 754 mmHg 28%
    19:00 +36°C° 0 mm 5 m/s 755 mmHg 30%
    20:00 +35°C° 0 mm 5 m/s 756 mmHg 32%
    21:00 +34°C° 0 mm 4 m/s 756 mmHg 35%
    22:00 +33°C° 0 mm 3 m/s 756 mmHg 37%
    23:00 +30°C° 0 mm 2 m/s 757 mmHg 40%
    Voir plus